Location: Boitzum
(52.1496°N, 9.6943°E)
Time: 23:51:30
(UTC+00:00)

Cosmos 2084 - Pass Details

Date: 13 January 2026
Orbit: 536 x 564 km, 62.8° (Epoch: 17 February)

Event Time Altitude Azimuth Distance (km) Brightness Sun altitude
Exits shadow 04:50:27 21° 190° (S) 1,273 5.1 -22.7°
Maximum altitude 04:52:50 45° 128° (SE) 773 4.4 -22.4°
Drops below altitude 10° 04:56:48 10° 56° (NE) 1,845 6.6 -21.8°
Sets 04:59:05 0° 50° (NE) 2,738 7.5 -21.4°
